Miscellaneous Local Product
Issued by NWS North Platte, NE

Home | Current Version | Previous Version | Text Only | Print | Product List | Glossary On
Versions: 1 2 3 4 5 6 7 8 9 10 11 12 13 14 15 16 17 18 19 20 21 22 23 24 25 26 27 28 29 30 31 32 33 34 35 36 37 38 39 40 41 42 43 44 45 46 47 48 49 50
000
AXUS43 KLBF 040210
MISLBF


WESTERN AND NORTH CENTRAL NEBRASKA HOURLY WEATHER ROUNDUP
NATIONAL WEATHER SERVICE NORTH PLATTE NE
900 PM CDT SUN MAY 03 2015

***STATIONS NOT REPORTING VARIABLES SUCH AS SKY/WEATHER OR
PRESSURE ARE PROVIDED BY THE NEBRASKA DEPARTMENT OF
ROADS...RAWS...AND APRS NETWORKS...AND ARE NOT UNDER
NATIONAL WEATHER SERVICE QUALITY CONTROL***

...OBSERVATIONS IN AND NEAR THE EASTERN PANHANDLE OF NEBRASKA...

CITY           SKY/WX    TMP DP  RH WIND       PRES   REMARKS
PINE RIDGE     MOCLDY    60  36  40 E8        30.02R
CHADRON        MOCLDY    61  39  44 E9        30.01R
ALLIANCE       CLOUDY    60  42  51 E9        30.01R
SIDNEY         CLOUDY    61  42  49 NE9       30.00S
WHITECLAY        N/A     61  35  37 E7          N/A
CRESCENT LAKE    N/A     61  37  40 E6G13       N/A
BIG SPRINGS      N/A     66  42  41 NE12        N/A
$$

...OBSERVATIONS IN NORTH CENTRAL NEBRASKA...

CITY           SKY/WX    TMP DP  RH WIND       PRES   REMARKS
VALENTINE      PTCLDY    64  34  32 NE14      29.98R
THEDFORD       MOCLDY    63  40  43 NE7       29.97R
AINSWORTH      MOCLDY    64  34  32 N14       29.97R
O`NEILL        CLEAR     64  40  40 N13       29.93R
ORD            CLEAR     67  44  43 N10G22    29.88R
BROKEN BOW     CLEAR     67  43  41 N17       29.90R
BROWNLEE         N/A     64  34  32 N10         N/A
VALENTINE NWR    N/A     64  37  37 NE10G21     N/A
SPRINGVIEW       N/A     65  37  35 CALM        N/A
HALSEY           N/A     65  37  35 NE7G18      N/A
BREWSTER         N/A     68  42  38 NE14        N/A
ROSE             N/A     67  45  44 N10         N/A
NEWPORT          N/A     63  39  41 NE7         N/A
SARGENT          N/A     66  41  40 NE7G14      N/A
COMSTOCK         N/A     73  49  42 N16         N/A
EWING            N/A     65  44  47 NE10G17     N/A
$$

...OBSERVATIONS IN SOUTHWEST NEBRASKA AND FAR NORTHEAST COLORADO...

CITY           SKY/WX    TMP DP  RH WIND       PRES   REMARKS
WRAY           FAIR      69  41  35 N12       29.91R
IMPERIAL       CLOUDY    67  41  38 NE13      29.91R
OGALLALA       CLOUDY    65  40  39 NE12      29.95R
NORTH PLATTE   MOCLDY    66  44  45 NE15      29.91R
MCCOOK         PTCLDY    72  45  37 N14       29.84R
LEXINGTON      PTCLDY    71  48  45 N21       29.86R
PAXTON           N/A     66  44  45 N9          N/A
SUTHERLAND       N/A     65  39  38 NE7         N/A
GOTHENBURG       N/A     68  42  38 N12         N/A
CALLAWAY         N/A     66  47  50 NE12        N/A
$$

...NORTH PLATTE AREA...

CITY           SKY/WX    TMP DP  RH WIND       PRES   REMARKS
AIRPORT        MOCLDY    66  44  45 NE15      29.91R
$$

...SOME WEATHER OBSERVATIONS FROM AROUND THE REGION...

CITY           SKY/WX    TMP DP  RH WIND       PRES   REMARKS
DENVER         CLOUDY    53  46  77 E12       30.06R
LARAMIE        LGT RAIN  46  42  86 NE8       30.11R
CHEYENNE       CLOUDY    50  43  77 CALM      30.06S
SCOTTSBLUFF    CLOUDY    62  40  44 E12       29.99S
RAPID CITY     PTCLDY    55  34  45 NE9       30.03S
PIERRE         CLEAR     59  27  29 N8        30.00R
WINNER         FAIR      61  32  33 NE12      29.98R
SIOUX FALLS    PTCLDY    66  36  32 N12       29.90R
OMAHA          CLOUDY    76  58  53 NW13G23   29.77R THUNDER
GRAND ISLAND   CLEAR     73  51  46 N21G35    29.80R
KANSAS CITY    MOCLDY    74  58  57 S15G24    29.85R
WICHITA        MOCLDY    73  57  57 S15       29.85R
HAYS           MOCLDY    73  48  40 SE10      29.80R
LIBERAL        CLOUDY    72  48  43 E9        29.86F
GOODLAND       CLOUDY    71  43  36 NE14      29.88R
$$



USA.gov is the U.S. government's official web portal to all federal, state and local government web resources and services.